Knox, IN

11:44 PM CST on February 11, 2016 (GMT -0600)
Starke County

Weather History for KOXI - November, 2013

Change the Weather History Date:

Saturday, November 23, 2013

  Actual Average (KVPZ) Record (KVPZ)
Temperature  
Mean Temperature 24 °F 37 °F  
Max Temperature 29 °F 44 °F 65 °F (2003)
Min Temperature 20 °F 30 °F 15 °F (2008)
Degree Days  
Heating Degree Days 40 28  
Month to date heating degree days 519  
Since 1 July heating degree days 1049  
Cooling Degree Days 0 0  
Month to date cooling degree days 0  
Year to date cooling degree days 713  
Moisture  
Dew Point 19 °F    
Average Humidity 80    
Maximum Humidity 93    
Minimum Humidity 62    
Precipitation  
Precipitation 0.00 in 0.10 in 1.22 in (2014)
Month to date precipitation 2.62  
Year to date precipitation 34.62  
Sea Level Pressure  
Sea Level Pressure 30.49 in    
Wind  
Wind Speed 13 mph (NW)    
Max Wind Speed 28 mph    
Max Gust Speed 33 mph    
Visibility 9 miles    
Events      
T = Trace of Precipitation, MM = Missing Value Source: NWS Daily Summary

Daily Weather History Graph

Daily Weather History Graph

Search for Another Location

Airport or City:

Trip Planner

Search our weather history database for the weather conditions in past years. The results will help you decide how hot, cold, wet, or windy it might be!

Date:

Astronomy

Nov. 23, 2013 Rise Set
Actual Time 6:44 AM CST 4:21 PM CST
Civil Twilight 6:14 AM CST 4:51 PM CST
Nautical Twilight 5:40 AM CST 5:25 PM CST
Astronomical Twilight 5:07 AM CST 5:58 PM CST
Moon 9:50 PM CST (11/23) 10:59 AM CST (11/23)
Length of Visible Light 10h 37m
Length of Day
9h 36m
Waning Gibbous, 69% of the Moon is Illuminated
Nov 23
Waning Gibbous
Nov 25
Last Quarter
Dec 2
New
Dec 9
First Quarter
Dec 17
Full

Hourly Weather History & Observations

Time (CST) Temp. Windchill Dew Point Humidity Pressure Visibility Wind Dir Wind Speed Gust Speed Precip Events Conditions
12:15 AM 28.9 °F 21.9 °F 26.8 °F 92% 30.43 in 10.0 mi West 6.9 mph - N/A   Scattered Clouds
12:35 AM 28.4 °F 21.2 °F 26.4 °F 92% 30.42 in 10.0 mi West 6.9 mph - N/A   Clear
12:55 AM 28.2 °F 21.0 °F 25.9 °F 91% 30.41 in 10.0 mi WSW 6.9 mph - N/A   Clear
1:15 AM 27.5 °F 18.6 °F 25.5 °F 92% 30.41 in 10.0 mi West 9.2 mph - N/A   Clear
1:35 AM 27.3 °F 19.9 °F 25.5 °F 93% 30.42 in 10.0 mi West 6.9 mph - N/A   Clear
1:55 AM 27.3 °F 19.9 °F 25.2 °F 92% 30.41 in 10.0 mi WSW 6.9 mph - N/A   Clear
2:15 AM 27.1 °F 17.5 °F 25.0 °F 92% 30.40 in 10.0 mi West 10.4 mph - N/A   Clear
2:35 AM 27.3 °F 17.1 °F 24.4 °F 89% 30.40 in 10.0 mi West 11.5 mph - N/A   Clear
2:55 AM 27.1 °F 17.5 °F 24.6 °F 90% 30.40 in 10.0 mi West 10.4 mph - N/A   Clear
3:15 AM 26.8 °F 15.9 °F 24.1 °F 90% 30.39 in 10.0 mi West 12.7 mph - N/A   Clear
3:35 AM 26.4 °F 15.5 °F 23.0 °F 87% 30.39 in 10.0 mi West 12.7 mph - N/A   Clear
3:55 AM 25.9 °F 15.3 °F 22.1 °F 86% 30.39 in 10.0 mi West 11.5 mph 17.3 mph N/A   Clear
4:15 AM 25.5 °F 15.5 °F 21.7 °F 86% 30.39 in 10.0 mi West 10.4 mph - N/A   Clear
4:35 AM 25.3 °F 15.3 °F 21.4 °F 85% 30.38 in 10.0 mi West 10.4 mph - N/A   Clear
4:55 AM 25.0 °F 15.5 °F 21.2 °F 86% 30.38 in 10.0 mi West 9.2 mph - N/A   Clear
5:15 AM 24.6 °F 13.8 °F 21.2 °F 87% 30.38 in 10.0 mi West 11.5 mph - N/A   Clear
5:35 AM 24.6 °F 15.1 °F 20.7 °F 85% 30.39 in 10.0 mi West 9.2 mph - N/A   Clear
5:55 AM 24.4 °F 13.5 °F 20.3 °F 84% 30.39 in 10.0 mi West 11.5 mph - N/A   Clear
6:15 AM 24.3 °F 13.3 °F 20.1 °F 84% 30.39 in 10.0 mi West 11.5 mph - N/A   Clear
6:35 AM 23.9 °F 13.5 °F 19.9 °F 85% 30.39 in 10.0 mi West 10.4 mph 16.1 mph N/A   Clear
6:55 AM 23.9 °F 12.9 °F 19.8 °F 84% 30.40 in 10.0 mi West 11.5 mph - N/A   Clear
7:15 AM 24.1 °F 13.7 °F 19.9 °F 84% 30.40 in 10.0 mi West 10.4 mph 16.1 mph N/A   Scattered Clouds
7:35 AM 24.8 °F 14.6 °F 20.7 °F 84% 30.40 in 10.0 mi West 10.4 mph - N/A   Mostly Cloudy
7:55 AM 25.7 °F 16.4 °F 21.6 °F 84% 30.40 in 10.0 mi West 9.2 mph - N/A   Overcast
8:15 AM 26.6 °F 13.4 °F 22.5 °F 84% 30.41 in 10.0 mi NW 18.4 mph - N/A   Overcast
8:35 AM 28.2 °F 15.9 °F 22.1 °F 78% 30.42 in 10.0 mi NW 17.3 mph 20.7 mph N/A   Mostly Cloudy
8:55 AM 28.8 °F 16.6 °F 21.7 °F 75% 30.43 in 10.0 mi NNW 17.3 mph 24.2 mph N/A   Mostly Cloudy
9:15 AM 28.8 °F 15.5 °F 21.2 °F 73% 30.43 in 10.0 mi NW 20.7 mph 28.8 mph N/A   Mostly Cloudy
9:35 AM 28.2 °F 15.2 °F 20.3 °F 72% 30.44 in 10.0 mi NW 19.6 mph 28.8 mph N/A   Mostly Cloudy
9:55 AM 28.6 °F 15.0 °F 19.0 °F 67% 30.46 in 10.0 mi NW 21.9 mph 27.6 mph N/A   Scattered Clouds
10:15 AM 28.9 °F 14.5 °F 19.0 °F 67% 30.46 in 10.0 mi NNW 25.3 mph 33.4 mph N/A   Scattered Clouds
10:35 AM 29.1 °F 15.4 °F 17.6 °F 62% 30.46 in 10.0 mi NW 23.0 mph 28.8 mph N/A   Scattered Clouds
10:55 AM 28.8 °F 14.0 °F 17.8 °F 64% 30.46 in 10.0 mi NW 26.5 mph 32.2 mph N/A   Scattered Clouds
11:15 AM 28.6 °F 15.0 °F 19.2 °F 68% 30.46 in 7.0 mi NW 21.9 mph 32.2 mph N/A   Scattered Clouds
11:35 AM 27.5 °F 12.6 °F 20.5 °F 75% 30.47 in 10.0 mi NW 25.3 mph 33.4 mph N/A   Overcast
11:55 AM 26.1 °F 10.1 °F 20.8 °F 81% 30.47 in 1.0 mi NNW 27.6 mph 31.1 mph N/A   Overcast
12:15 PM 25.9 °F 12.1 °F 19.6 °F 77% 30.47 in 10.0 mi NW 19.6 mph 25.3 mph N/A   Overcast
12:35 PM 26.2 °F 12.6 °F 20.8 °F 80% 30.47 in 10.0 mi NW 19.6 mph 27.6 mph N/A   Overcast
12:55 PM 25.9 °F 12.5 °F 18.1 °F 73% 30.48 in 7.0 mi NNW 18.4 mph 23.0 mph N/A   Overcast
1:15 PM 26.1 °F 11.3 °F 16.9 °F 68% 30.48 in 10.0 mi NW 23.0 mph 27.6 mph N/A   Overcast
1:35 PM 25.3 °F 11.8 °F 18.9 °F 76% 30.49 in 7.0 mi NW 18.4 mph 28.8 mph N/A   Overcast
1:55 PM 25.2 °F 12.9 °F 19.0 °F 78% 30.49 in 10.0 mi NNW 15.0 mph 21.9 mph N/A   Overcast
2:15 PM 25.0 °F 8.9 °F 18.1 °F 75% 30.50 in 10.0 mi NNW 26.5 mph 31.1 mph N/A   Overcast
2:35 PM 24.4 °F 8.8 °F 17.6 °F 75% 30.51 in 10.0 mi NNW 24.2 mph 29.9 mph N/A   Overcast
2:55 PM 24.1 °F 9.4 °F 17.8 °F 77% 30.52 in 7.0 mi NNW 20.7 mph - N/A   Overcast
3:15 PM 23.7 °F 9.3 °F 17.4 °F 77% 30.52 in 3.0 mi NNW 19.6 mph 24.2 mph N/A   Overcast
3:35 PM 23.4 °F 8.8 °F 17.4 °F 78% 30.53 in 7.0 mi NNW 19.6 mph 25.3 mph N/A   Overcast
3:55 PM 23.5 °F 8.3 °F 14.5 °F 69% 30.54 in 10.0 mi NNW 21.9 mph 28.8 mph N/A   Overcast
4:15 PM 23.4 °F 10.1 °F 15.8 °F 73% 30.54 in 10.0 mi NNW 16.1 mph - N/A   Overcast
4:35 PM 23.4 °F 10.1 °F 15.3 °F 71% 30.55 in 7.0 mi NNW 16.1 mph 25.3 mph N/A   Overcast
4:55 PM 23.2 °F 8.2 °F 14.7 °F 70% 30.55 in 10.0 mi North 20.7 mph 25.3 mph N/A   Overcast
5:15 PM 22.8 °F 9.4 °F 15.4 °F 73% 30.56 in 4.0 mi NNW 16.1 mph - N/A   Overcast
5:35 PM 22.6 °F 9.2 °F 16.2 °F 76% 30.56 in 10.0 mi NNW 16.1 mph 21.9 mph N/A   Overcast
5:55 PM 22.8 °F 9.9 °F 15.8 °F 74% 30.57 in 10.0 mi NNW 15.0 mph - N/A   Overcast
6:15 PM 22.8 °F 9.4 °F 15.6 °F 74% 30.58 in 10.0 mi NNW 16.1 mph 21.9 mph N/A   Overcast
6:35 PM 23.0 °F 9.6 °F 14.5 °F 70% 30.58 in 10.0 mi NNW 16.1 mph 20.7 mph N/A   Overcast
6:55 PM 23.2 °F 9.4 °F 12.7 °F 64% 30.58 in 10.0 mi NNW 17.3 mph 21.9 mph N/A   Unknown
7:15 PM 23.0 °F 8.0 °F 12.6 °F 64% 30.58 in 10.0 mi NW 20.7 mph 26.5 mph N/A   Unknown
7:35 PM 23.0 °F 9.2 °F 14.2 °F 69% 30.59 in 10.0 mi NNW 17.3 mph - N/A   Unknown
7:55 PM 22.6 °F 9.2 °F 14.9 °F 72% 30.60 in 10.0 mi NNW 16.1 mph 26.5 mph N/A   Unknown
8:15 PM 22.5 °F 8.9 °F 15.6 °F 75% 30.60 in 10.0 mi NNW 16.1 mph - N/A   Unknown
8:35 PM 21.9 °F 7.8 °F 16.2 °F 78% 30.60 in 7.0 mi NNW 17.3 mph 20.7 mph N/A   Unknown
8:55 PM 21.4 °F 8.5 °F 17.8 °F 86% 30.60 in 4.0 mi NNW 13.8 mph - N/A   Unknown
9:15 PM 21.4 °F 9.7 °F 18.0 °F 87% 30.60 in 4.0 mi NW 11.5 mph - N/A   Unknown
9:35 PM 21.7 °F 9.0 °F 17.4 °F 83% 30.60 in 5.0 mi NNW 13.8 mph - N/A   Unknown
9:55 PM 21.6 °F 10.6 °F 17.8 °F 85% 30.60 in 5.0 mi NNW 10.4 mph - N/A   Unknown
10:15 PM 21.7 °F 10.2 °F 16.9 °F 82% 30.61 in 2.5 mi NNW 11.5 mph - N/A   Unknown
10:35 PM 21.2 °F 8.3 °F 17.4 °F 85% 30.61 in 7.0 mi NNW 13.8 mph - N/A   Unknown
10:55 PM 21.0 °F 9.9 °F 17.4 °F 86% 30.60 in 5.0 mi NNW 10.4 mph - N/A   Unknown
11:15 PM 21.0 °F 9.3 °F 17.6 °F 87% 30.60 in 3.0 mi North 11.5 mph - N/A   Unknown
11:35 PM 20.8 °F 9.7 °F 18.3 °F 90% 30.60 in 2.5 mi NNW 10.4 mph - N/A   Unknown
11:55 PM 20.3 °F 10.6 °F 18.3 °F 92% 30.60 in 4.0 mi NNW 8.1 mph - N/A   Unknown